Weather History for Concordia, KS

Change the Weather History Date:

Tuesday, January 1, 2013

  Actual Average Record
Temperature  
Mean Temperature 17 °F 28 °F  
Max Temperature 21 °F 38 °F 66 °F (2005)
Min Temperature 13 °F 19 °F -14 °F (1974)
Degree Days  
Heating Degree Days 48 37  
Month to date heating degree days 48 37  
Since 1 July heating degree days 2075 2214  
Cooling Degree Days 0 0  
Month to date cooling degree days 0 0  
Year to date cooling degree days 0 0  
Moisture  
Dew Point 12 °F    
Average Humidity 83    
Maximum Humidity 92    
Minimum Humidity 73    
Precipitation  
Precipitation T in 0.02 in 0.40 in (1907)
Month to date precipitation T 0.02  
Year to date precipitation T 0.02  
Snow  
Snow 0.00 in 0.20 in 1.20 in (1974)
Month to date snowfall 0.2  
Year to date snowfall 0.2  
Since 1 July snowfall 8.5 6.7  
Snow Depth 7.00 in    
Sea Level Pressure  
Sea Level Pressure 30.29 in    
Wind  
Wind Speed 7 mph (WNW)    
Max Wind Speed 15 mph    
Max Gust Speed 20 mph    
Visibility 8 miles    
Events Snow    
T = Trace of Precipitation, MM = Missing Value Source: NWS Daily Summary

Daily Weather History Graph

Daily Weather History Graph

Search for Another Location

Airport:

Trip Planner

Search our weather history database for the weather conditions in past years. The results will help you decide how hot, cold, wet, or windy it might be!

Date:

Astronomy

Jan. 01, 2013 Rise Set
Actual Time 7:51 AM CST 5:17 PM CST
Civil Twilight 7:21 AM CST 5:47 PM CST
Nautical Twilight 6:47 AM CST 6:21 PM CST
Astronomical Twilight 6:14 AM CST 6:54 PM CST
Moon 9:48 PM CST (1/1) 10:05 AM CST (1/1)
Length of Visible Light 10h 26m
Length of Day
9h 26m
Waning Gibbous, 83% of the Moon is Illuminated
Jan 1
Waning Gibbous
Jan 4
Last Quarter
Jan 11
New
Jan 18
First Quarter
Jan 26
Full

Hourly Weather History & Observations

Time (CST) Temp. Windchill Dew Point Humidity Pressure Visibility Wind Dir Wind Speed Gust Speed Precip Events Conditions
12:55 AM 18.0 °F 8.7 °F 15.1 °F 88% 30.27 in 6.0 mi North 6.9 mph - N/A   Overcast
1:08 AM 17.6 °F 6.4 °F 15.8 °F 93% 30.21 in 7.0 mi North 9.2 mph - N/A   Overcast
1:29 AM 17.6 °F 6.4 °F 14.0 °F 86% 30.21 in 4.0 mi NNE 9.2 mph - 0.00 in Snow Light Snow
1:55 AM 18.0 °F 6.9 °F 14.0 °F 84% 30.27 in 4.0 mi North 9.2 mph - 0.00 in Snow Light Snow
2:55 AM 17.1 °F 5.8 °F 12.0 °F 81% 30.30 in 9.0 mi NNE 9.2 mph - 0.00 in   Overcast
3:21 AM 17.6 °F 8.2 °F 12.2 °F 79% 30.23 in 8.0 mi NNE 6.9 mph - N/A   Overcast
3:55 AM 18.0 °F 8.7 °F 12.9 °F 81% 30.30 in 10.0 mi NNE 6.9 mph - N/A   Overcast
4:45 AM 15.8 °F 5.1 °F 10.4 °F 79% 30.21 in 10.0 mi NNE 8.1 mph - N/A   Scattered Clouds
4:55 AM 16.0 °F 5.3 °F 10.9 °F 81% 30.27 in 10.0 mi North 8.1 mph - N/A   Clear
5:55 AM 15.1 °F 4.2 °F 10.0 °F 80% 30.28 in 10.0 mi NNE 8.1 mph - N/A   Clear
6:55 AM 14.0 °F - 10.0 °F 84% 30.31 in 10.0 mi Calm Calm - N/A   Mostly Cloudy
7:55 AM 12.9 °F - 10.0 °F 88% 30.34 in 9.0 mi Calm Calm - N/A   Overcast
8:55 AM 12.9 °F 6.9 °F 10.0 °F 88% 30.36 in 7.0 mi West 3.5 mph - N/A   Scattered Clouds
9:55 AM 14.0 °F 6.5 °F 10.0 °F 84% 30.38 in 7.0 mi NW 4.6 mph - N/A   Clear
10:55 AM 16.0 °F - 12.0 °F 84% 30.39 in 7.0 mi Calm Calm - N/A   Clear
11:55 AM 17.1 °F - 10.9 °F 77% 30.37 in 7.0 mi Calm Calm - N/A   Clear
12:55 PM 18.0 °F 12.7 °F 12.0 °F 78% 30.34 in 8.0 mi WSW 3.5 mph - N/A   Clear
1:55 PM 19.9 °F 12.1 °F 12.0 °F 71% 30.32 in 9.0 mi West 5.8 mph - N/A   Clear
2:55 PM 19.9 °F 10.1 °F 12.0 °F 71% 30.30 in 9.0 mi West 8.1 mph - N/A   Clear
3:55 PM 19.9 °F 10.1 °F 12.9 °F 74% 30.30 in 9.0 mi WSW 8.1 mph - N/A   Clear
4:55 PM 18.0 °F 11.1 °F 12.0 °F 78% 30.30 in 8.0 mi SW 4.6 mph - N/A   Clear
5:55 PM 16.0 °F 6.3 °F 10.9 °F 81% 30.29 in 8.0 mi SW 6.9 mph - N/A   Clear
6:55 PM 18.0 °F 5.4 °F 12.9 °F 81% 30.28 in 9.0 mi SW 11.5 mph - N/A   Clear
7:55 PM 18.0 °F 5.4 °F 12.9 °F 81% 30.28 in 9.0 mi SW 11.5 mph - N/A   Clear
8:55 PM 17.1 °F 5.0 °F 12.0 °F 81% 30.26 in 9.0 mi SW 10.4 mph - N/A   Clear
9:55 PM 16.0 °F 3.6 °F 12.0 °F 84% 30.26 in 9.0 mi SW 10.4 mph - N/A   Clear
10:55 PM 17.1 °F 4.3 °F 12.0 °F 81% 30.26 in 10.0 mi WSW 11.5 mph - N/A   Clear
11:55 PM 16.0 °F 3.6 °F 10.9 °F 81% 30.25 in 10.0 mi WSW 10.4 mph - N/A   Clear